Total_Precipitation_Accumulation
0.43 0.45 0.48 0.53 0.58 0.63 0.67 0.72 0.71 0.72 0.73 0.72 0.73 0.74 0.73 0.72 0.76 0.84 0.89 0.92 0.94 0.92 0.88 0.87 0.86 0.85 0.87 0.88 0.93 0.98 1.03 1.11 1.13 0.89 0.75 0.72 0.74 0.74 0.76 0.74 0.69 0.67 0.64
0.37 0.40 0.43 0.45 0.46 0.50 0.56 0.57 0.57 0.60 0.60 0.59 0.58 0.60 0.62 0.62 0.63 0.69 0.75 0.78 0.81 0.84 0.86 0.89 0.89 0.91 0.95 0.97 1.00 1.00 0.99 0.99 1.02 0.95 0.78 0.69 0.65 0.62 0.62 0.64 0.65 0.63 0.58
0.33 0.35 0.35 0.37 0.39 0.40 0.45 0.49 0.52 0.57 0.62 0.63 0.58 0.54 0.52 0.52 0.56 0.60 0.64 0.70 0.74 0.76 0.80 0.86 0.90 0.95 1.01 1.02 1.01 1.00 0.96 0.92 0.93 0.94 0.83 0.69 0.63 0.59 0.61 0.62 0.62 0.62 0.57
0.28 0.29 0.29 0.33 0.35 0.35 0.37 0.40 0.44 0.49 0.56 0.57 0.57 0.57 0.54 0.52 0.54 0.59 0.66 0.71 0.78 0.81 0.83 0.85 0.88 0.90 0.90 0.90 0.88 0.86 0.87 0.88 0.88 0.91 0.87 0.76 0.66 0.61 0.65 0.71 0.69 0.61 0.57
0.26 0.26 0.27 0.31 0.33 0.35 0.36 0.38 0.40 0.42 0.50 0.53 0.55 0.57 0.57 0.57 0.60 0.65 0.69 0.75 0.80 0.86 0.89 0.88 0.84 0.82 0.77 0.76 0.76 0.75 0.75 0.81 0.89 0.93 0.89 0.79 0.68 0.65 0.65 0.64 0.69 0.65 0.60
0.24 0.24 0.24 0.28 0.30 0.33 0.35 0.38 0.38 0.41 0.48 0.53 0.60 0.66 0.69 0.74 0.88 0.89 0.82 0.80 0.82 0.81 0.79 0.76 0.74 0.74 0.72 0.75 0.75 0.75 0.79 0.89 0.98 0.97 0.86 0.71 0.56 0.52 0.57 0.67 0.77 0.82 0.73
0.22 0.22 0.24 0.27 0.31 0.32 0.36 0.41 0.46 0.51 0.59 0.66 0.70 0.80 0.84 0.87 0.92 0.85 0.81 0.75 0.77 0.76 0.71 0.66 0.62 0.58 0.59 0.56 0.63 0.70 0.72 0.77 0.82 0.81 0.75 0.62 0.56 0.55 0.70 0.87 0.86 0.82 0.65
0.21 0.26 0.28 0.29 0.37 0.44 0.44 0.48 0.56 0.63 0.70 0.77 0.77 0.80 0.83 0.84 0.83 0.75 0.73 0.63 0.59 0.58 0.56 0.53 0.49 0.48 0.49 0.52 0.58 0.66 0.59 0.55 0.55 0.53 0.55 0.59 0.60 0.59 0.69 0.83 0.83 0.80 0.67
0.22 0.28 0.32 0.33 0.43 0.53 0.53 0.55 0.59 0.65 0.72 0.75 0.74 0.71 0.65 0.64 0.64 0.58 0.55 0.50 0.48 0.45 0.44 0.46 0.48 0.44 0.50 0.64 0.67 0.64 0.53 0.44 0.46 0.52 0.57 0.57 0.58 0.57 0.60 0.80 0.96 1.02 0.86
0.32 0.37 0.43 0.49 0.56 0.61 0.60 0.59 0.57 0.56 0.58 0.57 0.53 0.50 0.47 0.44 0.46 0.45 0.43 0.38 0.39 0.39 0.42 0.45 0.49 0.48 0.56 0.67 0.61 0.58 0.51 0.43 0.44 0.42 0.41 0.41 0.40 0.44 0.54 0.68 1.04 1.33 1.06
0.45 0.48 0.50 0.55 0.57 0.57 0.55 0.52 0.47 0.42 0.41 0.40 0.38 0.37 0.37 0.36 0.38 0.37 0.39 0.36 0.36 0.40 0.42 0.40 0.43 0.59 0.66 0.64 0.56 0.46 0.49 0.54 0.46 0.37 0.35 0.35 0.35 0.37 0.40 0.45 0.68 1.25 1.46
0.44 0.44 0.44 0.43 0.44 0.45 0.44 0.43 0.39 0.36 0.34 0.34 0.34 0.36 0.38 0.39 0.39 0.40 0.44 0.47 0.49 0.45 0.39 0.36 0.42 0.59 0.59 0.52 0.46 0.49 0.58 0.53 0.42 0.41 0.40 0.39 0.37 0.35 0.35 0.38 0.44 0.61 0.92
0.35 0.34 0.32 0.30 0.29 0.30 0.31 0.32 0.32 0.31 0.30 0.32 0.35 0.37 0.39 0.40 0.44 0.48 0.49 0.57 0.59 0.51 0.47 0.54 0.57 0.53 0.46 0.43 0.43 0.47 0.47 0.44 0.49 0.55 0.51 0.42 0.38 0.37 0.39 0.43 0.45 0.49 0.57
0.22 0.23 0.24 0.21 0.21 0.23 0.23 0.26 0.28 0.28 0.28 0.28 0.32 0.38 0.39 0.37 0.40 0.45 0.49 0.54 0.57 0.56 0.58 0.59 0.53 0.45 0.40 0.39 0.42 0.42 0.40 0.42 0.52 0.60 0.55 0.44 0.39 0.43 0.47 0.55 0.65 0.67 0.74
0.17 0.17 0.18 0.20 0.20 0.22 0.24 0.27 0.31 0.31 0.34 0.34 0.31 0.33 0.37 0.37 0.41 0.52 0.55 0.53 0.60 0.64 0.62 0.48 0.40 0.38 0.38 0.36 0.35 0.36 0.38 0.42 0.47 0.49 0.53 0.53 0.47 0.47 0.49 0.59 0.78 0.90 0.94
0.17 0.17 0.19 0.20 0.20 0.21 0.23 0.27 0.31 0.33 0.36 0.37 0.37 0.36 0.33 0.38 0.48 0.53 0.56 0.61 0.65 0.63 0.53 0.43 0.41 0.38 0.36 0.34 0.33 0.34 0.35 0.39 0.46 0.55 0.56 0.57 0.58 0.57 0.57 0.60 0.79 0.96 0.97
0.17 0.19 0.19 0.20 0.21 0.21 0.22 0.25 0.27 0.28 0.30 0.32 0.33 0.35 0.35 0.37 0.39 0.43 0.49 0.55 0.51 0.47 0.42 0.42 0.42 0.42 0.40 0.38 0.39 0.41 0.40 0.38 0.48 0.61 0.67 0.68 0.68 0.65 0.66 0.71 0.79 0.86 0.84
0.18 0.21 0.22 0.21 0.21 0.21 0.22 0.23 0.24 0.26 0.25 0.23 0.25 0.30 0.32 0.35 0.37 0.39 0.43 0.41 0.34 0.33 0.34 0.38 0.40 0.41 0.43 0.47 0.49 0.52 0.52 0.50 0.54 0.63 0.68 0.71 0.77 0.81 0.79 0.78 0.82 0.86 0.81
0.16 0.18 0.20 0.21 0.23 0.24 0.24 0.24 0.24 0.25 0.25 0.24 0.24 0.27 0.32 0.34 0.36 0.37 0.35 0.28 0.27 0.29 0.32 0.34 0.35 0.38 0.44 0.50 0.53 0.56 0.60 0.64 0.68 0.77 0.77 0.79 0.84 0.92 0.86 0.78 0.77 0.70 0.63
0.14 0.20 0.21 0.20 0.20 0.22 0.24 0.25 0.25 0.26 0.26 0.26 0.26 0.28 0.31 0.35 0.32 0.28 0.26 0.26 0.30 0.33 0.33 0.34 0.34 0.37 0.44 0.49 0.52 0.56 0.63 0.65 0.71 0.78 0.81 0.84 0.88 0.95 0.92 0.77 0.66 0.63 0.56
0.13 0.16 0.21 0.20 0.20 0.20 0.21 0.22 0.23 0.25 0.25 0.25 0.25 0.29 0.39 0.36 0.28 0.24 0.26 0.29 0.33 0.36 0.37 0.37 0.36 0.40 0.46 0.51 0.55 0.56 0.61 0.65 0.72 0.83 0.87 0.85 0.84 0.80 0.69 0.66 0.62 0.62 0.63
0.14 0.15 0.16 0.17 0.19 0.22 0.25 0.24 0.24 0.24 0.23 0.24 0.24 0.28 0.36 0.31 0.27 0.27 0.27 0.28 0.30 0.32 0.35 0.39 0.40 0.42 0.54 0.68 0.78 0.81 0.72 0.68 0.72 0.82 0.83 0.74 0.69 0.66 0.64 0.64 0.62 0.63 0.64
0.15 0.16 0.17 0.18 0.21 0.25 0.27 0.25 0.24 0.24 0.24 0.24 0.25 0.26 0.27 0.27 0.27 0.28 0.27 0.27 0.28 0.30 0.32 0.38 0.44 0.43 0.47 0.64 0.82 1.07 1.15 0.99 0.90 0.96 1.02 0.87 0.73 0.69 0.71 0.71 0.65 0.64 0.60
0.14 0.15 0.18 0.20 0.22 0.24 0.25 0.24 0.24 0.25 0.25 0.25 0.25 0.25 0.26 0.26 0.27 0.27 0.27 0.28 0.29 0.30 0.32 0.38 0.44 0.47 0.50 0.65 0.78 0.89 1.03 1.15 1.30 1.32 1.28 1.25 1.01 0.81 0.75 0.71 0.63 0.59 0.59
0.16 0.17 0.18 0.20 0.22 0.23 0.24 0.24 0.24 0.24 0.25 0.25 0.24 0.25 0.25 0.26 0.26 0.25 0.26 0.27 0.29 0.28 0.27 0.32 0.40 0.48 0.55 0.65 0.77 0.84 0.90 1.01 1.17 1.23 1.12 1.03 0.89 0.77 0.73 0.69 0.61 0.57 0.56
0.18 0.19 0.20 0.21 0.22 0.23 0.25 0.25 0.25 0.26 0.27 0.27 0.27 0.27 0.27 0.27 0.25 0.24 0.24 0.26 0.28 0.26 0.25 0.27 0.32 0.43 0.54 0.63 0.66 0.74 0.83 0.80 0.73 0.69 0.79 0.85 0.79 0.69 0.67 0.70 0.61 0.58 0.56